"Pseudo-MPEC" for P10IjTa

Created 2018 Jul 12 14:18:18 UT using Find_Orb

Click here for an explanation of pseudo-MPECs

 
 Astrometry: 
     P10IjTa  C2018 07 10C@Astrometry_Z)#Slg'vZmZE8`h*H!bd(!*QK8sI22)i\bV=^60F51
     P10IjTa  C2018 07 10r\I2$-ZZJ[DR6(];tVd-BGI1]1gI$1v:4.ruiRyJQQ:YhUTDta@AF51
     P10IjTa  C2018 07 10dQ%O?YRwjN7X]/.L-Pm_DL'SZLMuFI_x(h=aA:,I+,nL20Z#s`*:F51
     P10IjTa  C2018 07 10dA`MjyKrhB4c6@2u^si1+TEH1b;ryD@hsQ;aMO$cIk^-d'rI[=KmF51
     P10IjTa |C2018 07 1154bbjBa4bAW\Lrwy!redacted;VJGW1[*Zq!`ktSdInSe50!a\y:807
     P10IjTa |C2018 07 11]UV-V0gkH!JaZo[;HdpS)+=+Fy^`\miIL-jq0k44-n)B/QBM!O1,807
     P10IjTa |C2018 07 11l,kTlM!bp$4$n+h9?Fh+CQ6e%7;jw-`)S:uZo]QsK/A0wZ*y[r^X807
     P10IjTa IC2018 07 11#tC\e8LbF2kS@3uWdn\Mil$$P#9H;q5:bS5S!a`([s#88LNe;ujsW89
     P10IjTa IC2018 07 11KG2Nc)TRxp-++I^a1DilqF_/r3Ohbsa4see@tb]Wp6UfC`LFD3WBW89
     P10IjTa IC2018 07 11$:Hc#uPR=9K$'FRi)0_se%pLQ=JdNG@R;CoK[mP9tvl=ZV-g[Xm3W89
     P10IjTa KC2018 07 12urQ#?rVZ;%R3%WHr.aF^Scr/?QU^Dh3?j5ko`s_YA2A]X6BR;XQp474
     P10IjTa KC2018 07 12pO8]F2N[#N+d.-7n@3bp^B`Zt`P-7FWA_;gKCHNKSlZ:^(5q.wgF474
     P10IjTa KC2018 07 12sM[m41%12FJMguJ6$uCJ/8.7M%y$lwt[jbFEAWWB\^/WbE5NEOCP474

Station data:
(474) Mount John Observatory, Lake Tekapo  (S43.987388 E170.464960)  New
   Zealand.  Observers A. C. Gilmore, P. M. Kilmartin. Measurer P. M.
   Kilmartin. 1.0-m f/7.7 reflector + CCD.
(807) Cerro Tololo Observatory, La Serena  (S30.169136 W70.805900)  Chile.
   1.5-m Ritchey-Chrétien.
(F51) Pan-STARRS 1, Haleakala  (N20.707235 W156.255910)  US/Hawaii.
   Observers N. Primak, A. Schultz, S. Watters, J. Thiel, T. Goggia. Measurer
   PS1 Science Consortium. 1.8-m Ritchey-Chrétien + CCD.
(W89) Cerro Tololo-LCO Aqawan A {#}1  (S30.167663 W70.804670)  Chile.

Orbital elements:  P10IjTa
   Perihelion 2018 Sep 10.519537 +/- 8.49 TT = 12:28:08 (JD 2458372.019537)
Epoch 2018 Jul 12.0 TT = JDT 2458311.5   Earth MOID: 0.7031   Ju: 0.9965
M 348.73205 +/- 1.1                 (J2000 ecliptic)          AutoNEOCP
n   0.18618683 +/- 0.0116           Peri.  271.61877 +/- 6
a   3.03740987 +/- 0.126            Node    53.01943 +/- 1.6
e   0.4357947 +/- 0.0232            Incl.    2.22001 +/- 0.059
P   5.29                   H 19.4   G  0.15   U  9.8  
q 1.71372246 +/- 0.0322    Q 4.36109728 +/- 0.238
From 13 observations 2018 July 10-12; mean residual 0".08
Residuals in arcseconds: 
180710 F51  .00   .00     180711 807  .02-  .02-    180712 474  .01-  .06+    
180710 F51  .05+  .02+    180711 807  .07-  .07-    180712 474  .05+  .05+    
180710 F51  .00   .03-    180711 W89  .16-  .04+    180712 474  .02-  .16-    
180710 F51  .01-  .02-    180711 W89  .07+  .06+    
180711 807  .03-  .09-    180711 W89  .15+  .18+    

Ephemerides (geocentric):
Date (UTC) HH   RA              Dec         delta   r     elong  mag " sig PA
---- -- -- --  -------------   -----------  ------ ------ -----  --- ---- ---
2018 07 12 14  20 09 44.062   -24 39 47.76  .78016 1.7896 169.7 20.6  .18 178
2018 07 12 15  20 09 42.984   -24 39 56.51  .78001 1.7895 169.7 20.6  .18   1
2018 07 12 16  20 09 41.905   -24 40 05.27  .77985 1.7894 169.7 20.6  .18   4
2018 07 12 17  20 09 40.824   -24 40 14.02  .77970 1.7893 169.8 20.6  .19   7
2018 07 12 18  20 09 39.741   -24 40 22.77  .77954 1.7892 169.8 20.6  .19  10
2018 07 12 19  20 09 38.656   -24 40 31.52  .77939 1.7891 169.9 20.6  .19  13
2018 07 12 20  20 09 37.570   -24 40 40.27  .77924 1.7890 169.9 20.6  .20  16
2018 07 12 21  20 09 36.481   -24 40 49.01  .77908 1.7889 169.9 20.6  .20  18
2018 07 12 22  20 09 35.391   -24 40 57.76  .77893 1.7888 170.0 20.6  .21  21
2018 07 12 23  20 09 34.299   -24 41 06.50  .77878 1.7887 170.0 20.6  .21  24
2018 07 13 00  20 09 33.205   -24 41 15.24  .77863 1.7886 170.1 20.6  .22  27
2018 07 13 01  20 09 32.109   -24 41 23.98  .77847 1.7885 170.1 20.6  .23  29
2018 07 13 02  20 09 31.012   -24 41 32.72  .77832 1.7884 170.1 20.6  .23  32
2018 07 13 03  20 09 29.913   -24 41 41.46  .77817 1.7883 170.2 20.6  .24  34
2018 07 13 04  20 09 28.812   -24 41 50.19  .77802 1.7882 170.2 20.6  .25  37
2018 07 13 05  20 09 27.709   -24 41 58.93  .77787 1.7881 170.2 20.6  .26  39
2018 07 13 06  20 09 26.604   -24 42 07.66  .77772 1.7880 170.3 20.6  .27  41
2018 07 13 07  20 09 25.498   -24 42 16.39  .77757 1.7879 170.3 20.6  .28  43
2018 07 13 08  20 09 24.390   -24 42 25.11  .77742 1.7878 170.4 20.6  .29  45
2018 07 13 09  20 09 23.280   -24 42 33.84  .77727 1.7877 170.4 20.6  .30  48
2018 07 13 10  20 09 22.168   -24 42 42.56  .77712 1.7876 170.4 20.6  .31  49
2018 07 13 11  20 09 21.055   -24 42 51.28  .77697 1.7875 170.5 20.6  .32  51
2018 07 13 12  20 09 19.940   -24 43 00.00  .77683 1.7874 170.5 20.6  .33  53
2018 07 13 13  20 09 18.823   -24 43 08.72  .77668 1.7873 170.6 20.6  .34  55
2018 07 13 14  20 09 17.704   -24 43 17.44  .77653 1.7872 170.6 20.6  .35  57
2018 07 13 15  20 09 16.584   -24 43 26.15  .77638 1.7871 170.6 20.6  .37  58
2018 07 13 16  20 09 15.462   -24 43 34.86  .77624 1.7870 170.7 20.5  .38  60
2018 07 13 17  20 09 14.338   -24 43 43.57  .77609 1.7869 170.7 20.5  .39  61
2018 07 13 18  20 09 13.213   -24 43 52.27  .77594 1.7868 170.7 20.5  .41  63
2018 07 13 19  20 09 12.086   -24 44 00.98  .77580 1.7867 170.8 20.5  .42  64
2018 07 13 20  20 09 10.957   -24 44 09.68  .77565 1.7866 170.8 20.5  .43  65
2018 07 13 21  20 09 09.826   -24 44 18.38  .77551 1.7865 170.9 20.5  .45  67
2018 07 13 22  20 09 08.694   -24 44 27.08  .77536 1.7864 170.9 20.5  .46  68
2018 07 13 23  20 09 07.561   -24 44 35.77  .77522 1.7863 170.9 20.5  .48  69
2018 07 14 00  20 09 06.425   -24 44 44.46  .77507 1.7862 171.0 20.5  .50  70
2018 07 14 01  20 09 05.288   -24 44 53.15  .77493 1.7861 171.0 20.5  .51  71
2018 07 14 02  20 09 04.149   -24 45 01.84  .77479 1.7860 171.0 20.5  .53  72
2018 07 14 03  20 09 03.009   -24 45 10.53  .77464 1.7859 171.1 20.5  .54  73
2018 07 14 04  20 09 01.867   -24 45 19.21  .77450 1.7858 171.1 20.5  .56  74
2018 07 14 05  20 09 00.723   -24 45 27.89  .77436 1.7857 171.2 20.5  .58  75
2018 07 14 06  20 08 59.578   -24 45 36.56  .77422 1.7856 171.2 20.5  .60  76
2018 07 14 07  20 08 58.431   -24 45 45.24  .77408 1.7855 171.2 20.5  .62  77
2018 07 14 08  20 08 57.283   -24 45 53.91  .77393 1.7854 171.3 20.5  .63  78
2018 07 14 09  20 08 56.133   -24 46 02.58  .77379 1.7853 171.3 20.5  .65  79
2018 07 14 10  20 08 54.981   -24 46 11.24  .77365 1.7852 171.3 20.5  .67  80
2018 07 14 11  20 08 53.828   -24 46 19.91  .77351 1.7851 171.4 20.5  .69  80
2018 07 14 12  20 08 52.673   -24 46 28.57  .77337 1.7850 171.4 20.5  .71  81
2018 07 14 13  20 08 51.517   -24 46 37.23  .77323 1.7849 171.5 20.5  .73  82